Stündliche Wetter Juliasdale

Heute, 5 März, Freitag

Zeit Temperatur Niederschläge Wind Luftdruck Luftfeuchtigkeit
00:00 +15°C° 0.2 mm 0 m/S 626 mmHg 98%
01:00 +15°C° 0.2 mm 0 m/S 625 mmHg 98%
02:00 +15°C° 0 mm 0 m/S 625 mmHg 97%
03:00 +15°C° 0 mm 0 m/S 625 mmHg 97%
04:00 +14°C° 0 mm 0 m/S 625 mmHg 97%
05:00 +14°C° 0 mm 0 m/S 624 mmHg 97%
06:00 +15°C° 0 mm 0 m/S 625 mmHg 95%
07:00 +16°C° 0 mm 0 m/S 626 mmHg 92%
08:00 +18°C° 0 mm 0 m/S 627 mmHg 89%
09:00 +19°C° 0.7 mm 0 m/S 627 mmHg 85%
10:00 +23°C° 0.7 mm 1 m/S 628 mmHg 81%
11:00 +24°C° 0.7 mm 1 m/S 628 mmHg 77%
12:00 +23°C° 1.8 mm 1 m/S 627 mmHg 80%
13:00 +23°C° 1.8 mm 1 m/S 627 mmHg 82%
14:00 +23°C° 0 mm 1 m/S 626 mmHg 85%
15:00 +22°C° 1.5 mm 1 m/S 626 mmHg 87%
16:00 +21°C° 1.5 mm 1 m/S 625 mmHg 90%
17:00 +21°C° 1.5 mm 1 m/S 625 mmHg 92%
18:00 +19°C° 0.8 mm 1 m/S 625 mmHg 94%
19:00 +18°C° 0.8 mm 1 m/S 626 mmHg 95%
20:00 +16°C° 0.8 mm 1 m/S 626 mmHg 97%
21:00 +16°C° 0.1 mm 1 m/S 626 mmHg 97%
22:00 +16°C° 0.1 mm 1 m/S 626 mmHg 97%
23:00 +16°C° 0.1 mm 1 m/S 627 mmHg 97%

Morgen, 6 März, Samstag

Zeit Temperatur Niederschläge Wind Luftdruck Luftfeuchtigkeit
00:00 +15°C° 0 mm 1 m/S 626 mmHg 97%
01:00 +15°C° 0 mm 1 m/S 626 mmHg 97%
02:00 +14°C° 0 mm 1 m/S 626 mmHg 96%
03:00 +14°C° 0 mm 1 m/S 625 mmHg 96%
04:00 +13°C° 0 mm 1 m/S 625 mmHg 96%
05:00 +13°C° 0 mm 1 m/S 625 mmHg 95%
06:00 +14°C° 0 mm 1 m/S 626 mmHg 94%
07:00 +16°C° 0 mm 1 m/S 627 mmHg 93%
08:00 +18°C° 0 mm 1 m/S 628 mmHg 91%
09:00 +20°C° 0 mm 1 m/S 628 mmHg 82%
10:00 +21°C° 0 mm 2 m/S 629 mmHg 74%
11:00 +24°C° 0 mm 2 m/S 629 mmHg 65%
12:00 +24°C° 0.1 mm 2 m/S 629 mmHg 65%
13:00 +24°C° 0.1 mm 2 m/S 628 mmHg 65%
14:00 +24°C° 0.1 mm 2 m/S 628 mmHg 65%
15:00 +23°C° 0.2 mm 2 m/S 627 mmHg 70%
16:00 +21°C° 0.2 mm 2 m/S 627 mmHg 75%
17:00 +20°C° 0.2 mm 2 m/S 627 mmHg 80%
18:00 +19°C° 0.1 mm 2 m/S 627 mmHg 86%
19:00 +17°C° 0.1 mm 2 m/S 627 mmHg 91%
20:00 +15°C° 0.1 mm 2 m/S 627 mmHg 97%
21:00 +15°C° 0 mm 2 m/S 627 mmHg 97%
22:00 +15°C° 0 mm 2 m/S 627 mmHg 97%
23:00 +15°C° 0 mm 2 m/S 627 mmHg 96%

übermorgen, 7 März, Sonntag

Zeit Temperatur Niederschläge Wind Luftdruck Luftfeuchtigkeit
00:00 +15°C° 0 mm 2 m/S 627 mmHg 97%
01:00 +15°C° 0 mm 2 m/S 627 mmHg 97%
02:00 +15°C° 0 mm 1 m/S 626 mmHg 97%
03:00 +14°C° 0 mm 1 m/S 626 mmHg 97%
04:00 +14°C° 0 mm 1 m/S 626 mmHg 96%
05:00 +14°C° 0 mm 1 m/S 626 mmHg 96%
06:00 +15°C° 0 mm 1 m/S 627 mmHg 90%
07:00 +16°C° 0 mm 1 m/S 627 mmHg 85%
08:00 +19°C° 0 mm 1 m/S 628 mmHg 80%
09:00 +20°C° 0 mm 1 m/S 629 mmHg 69%
10:00 +22°C° 0 mm 1 m/S 629 mmHg 59%
11:00 +24°C° 0 mm 1 m/S 630 mmHg 48%
12:00 +24°C° 0 mm 2 m/S 629 mmHg 47%
13:00 +25°C° 0 mm 2 m/S 628 mmHg 46%
14:00 +25°C° 0 mm 2 m/S 628 mmHg 44%
15:00 +24°C° 0 mm 2 m/S 627 mmHg 52%
16:00 +23°C° 0 mm 2 m/S 626 mmHg 59%
17:00 +20°C° 0 mm 2 m/S 626 mmHg 67%
18:00 +18°C° 0 mm 2 m/S 626 mmHg 74%
19:00 +18°C° 0 mm 1 m/S 626 mmHg 82%
20:00 +15°C° 0 mm 1 m/S 625 mmHg 89%
21:00 +14°C° 0 mm 1 m/S 626 mmHg 91%
22:00 +14°C° 0 mm 1 m/S 626 mmHg 92%
23:00 +14°C° 0 mm 1 m/S 626 mmHg 94%

8 März, Montag

Zeit Temperatur Niederschläge Wind Luftdruck Luftfeuchtigkeit
00:00 +14°C° 0 mm 1 m/S 626 mmHg 92%
01:00 +13°C° 0 mm 1 m/S 625 mmHg 90%
02:00 +13°C° 0 mm 1 m/S 625 mmHg 88%
03:00 +13°C° 0 mm 1 m/S 625 mmHg 84%
04:00 +12°C° 0 mm 1 m/S 624 mmHg 81%
05:00 +12°C° 0 mm 1 m/S 624 mmHg 77%
06:00 +13°C° 0 mm 0 m/S 625 mmHg 71%
07:00 +16°C° 0 mm 0 m/S 626 mmHg 65%
08:00 +18°C° 0 mm 0 m/S 627 mmHg 60%
09:00 +19°C° 0 mm 0 m/S 628 mmHg 55%
10:00 +23°C° 0 mm 1 m/S 628 mmHg 50%
11:00 +25°C° 0 mm 1 m/S 629 mmHg 45%
12:00 +25°C° 0 mm 1 m/S 628 mmHg 45%
13:00 +25°C° 0 mm 1 m/S 628 mmHg 45%
14:00 +26°C° 0 mm 1 m/S 627 mmHg 45%
15:00 +24°C° 0 mm 1 m/S 627 mmHg 53%
16:00 +23°C° 0 mm 1 m/S 626 mmHg 61%
17:00 +22°C° 0 mm 1 m/S 626 mmHg 68%
18:00 +20°C° 0 mm 1 m/S 625 mmHg 75%
19:00 +18°C° 0 mm 1 m/S 625 mmHg 82%
20:00 +15°C° 0 mm 1 m/S 625 mmHg 88%
21:00 +15°C° 0 mm 1 m/S 625 mmHg 89%
22:00 +14°C° 0 mm 1 m/S 626 mmHg 90%
23:00 +14°C° 0 mm 1 m/S 626 mmHg 91%

9 März, Dienstag

Zeit Temperatur Niederschläge Wind Luftdruck Luftfeuchtigkeit
00:00 +14°C° 0 mm 1 m/S 625 mmHg 90%
01:00 +13°C° 0 mm 1 m/S 625 mmHg 90%
02:00 +12°C° 0 mm 0 m/S 625 mmHg 89%
03:00 +13°C° 0 mm 1 m/S 625 mmHg 90%
04:00 +13°C° 0 mm 1 m/S 625 mmHg 91%
05:00 +13°C° 0 mm 1 m/S 625 mmHg 92%
06:00 +15°C° 0 mm 1 m/S 626 mmHg 85%
07:00 +16°C° 0 mm 0 m/S 627 mmHg 79%
08:00 +18°C° 0 mm 0 m/S 628 mmHg 73%
09:00 +20°C° 0 mm 0 m/S 628 mmHg 64%
10:00 +24°C° 0 mm 1 m/S 629 mmHg 56%
11:00 +26°C° 0 mm 1 m/S 629 mmHg 47%
12:00 +26°C° 0 mm 1 m/S 629 mmHg 47%
13:00 +26°C° 0 mm 1 m/S 628 mmHg 46%
14:00 +26°C° 0 mm 1 m/S 628 mmHg 46%
15:00 +25°C° 0 mm 1 m/S 627 mmHg 54%
16:00 +24°C° 0 mm 1 m/S 627 mmHg 62%
17:00 +23°C° 0 mm 1 m/S 626 mmHg 71%
18:00 +21°C° 0 mm 1 m/S 626 mmHg 76%
19:00 +19°C° 0 mm 1 m/S 626 mmHg 82%
20:00 +15°C° 0 mm 1 m/S 626 mmHg 87%
21:00 +15°C° 0 mm 1 m/S 626 mmHg 86%
22:00 +15°C° 0 mm 1 m/S 626 mmHg 85%
23:00 +14°C° 0 mm 1 m/S 626 mmHg 84%

10 März, Mittwoch

Zeit Temperatur Niederschläge Wind Luftdruck Luftfeuchtigkeit
00:00 +14°C° 0 mm 1 m/S 625 mmHg 82%
01:00 +14°C° 0 mm 1 m/S 625 mmHg 80%
02:00 +12°C° 0 mm 0 m/S 625 mmHg 78%
03:00 +13°C° 0 mm 1 m/S 625 mmHg 81%
04:00 +13°C° 0 mm 1 m/S 625 mmHg 83%
05:00 +13°C° 0 mm 1 m/S 625 mmHg 86%
06:00 +15°C° 0 mm 1 m/S 626 mmHg 82%
07:00 +16°C° 0 mm 0 m/S 627 mmHg 77%
08:00 +18°C° 0 mm 0 m/S 628 mmHg 72%
09:00 +20°C° 0 mm 0 m/S 628 mmHg 63%
10:00 +24°C° 0 mm 1 m/S 629 mmHg 53%
11:00 +26°C° 0 mm 1 m/S 629 mmHg 44%
12:00 +26°C° 0 mm 1 m/S 629 mmHg 43%
13:00 +27°C° 0 mm 1 m/S 628 mmHg 43%
14:00 +27°C° 0 mm 1 m/S 628 mmHg 42%
15:00 +26°C° 0 mm 1 m/S 627 mmHg 49%
16:00 +25°C° 0 mm 1 m/S 627 mmHg 57%
17:00 +24°C° 0 mm 1 m/S 626 mmHg 65%
18:00 +21°C° 0 mm 1 m/S 626 mmHg 72%
19:00 +19°C° 0 mm 1 m/S 625 mmHg 79%
20:00 +16°C° 0 mm 1 m/S 625 mmHg 85%
21:00 +16°C° 0 mm 1 m/S 625 mmHg 85%
22:00 +14°C° 0 mm 0 m/S 625 mmHg 85%
23:00 +14°C° 0 mm 0 m/S 625 mmHg 85%
Mehr zeigen

Wir brauchen deine Erlaubnis

Meteoprog und unser Service Anbieter werden persönliche Daten aufbewahren, so wie Cookies, Geräte Bezeichnung oder ähnliche Technologien von deinem Gerät und Prozess, so wie Persönliche Daten Inhalte und Werbungen, genauso wie social Media und den Verkehr zu analysieren.

  • Aufbewahrung und/oder Zugang zu deiner Geräte Informationen.

    Cookies, Geräte Bezeichnung oder andere Informationen, können aufbewahrt oder Zugang zu deinem Gerät erhalten, für den Grund, der oben angegeben wird.

  • Personalisierte Werbung und Inhalte, Messungen, Einblick in das Publikum und Produkt Entwicklung.

    Werbungen und Inhalte können personalisiert werden, basierend auf ein Profil. Mehr Daten können besser personalisierte Werbungen und Inhalte hinzufügen. Werbung und Inhalte können gezeigt und gemessen werden. Einblicke über das Publikum, welche die Werbung gesehen haben und den Inhalt, können abgeleitet werden. So wie Daten können genutzt werden, um es zu verbessern oder die Benutzer Erfahrung zu verbessern das System und die Software.

Wenn du “Ich stimme zu” klickst, erlaubst du uns, die Cookies zu benutzen die Geräte Bezeichnung, den Web oder ähnliche Technologien zu benutzen. Deine Settings, können in deinem Gerät bei deinem Browser geändert werden.

Für den bestimmten Zweck, berechtigten Interessen beruhen darauf, mehr als auf den Inhalt. Du kannst mehr darüber in unseren Privaten und Cookie Politik lesen.